Regional & State Weather Roundups


493 
ASUS43 KOAX 150610
RWRNE 
WEATHER ROUNDUP FOR NEBRASKA
NATIONAL WEATHER SERVICE OMAHA NE
1200 AM CST FRI DEC 15 2017
NOTES: SATELLITE DATA IS BEING USED TO AUGMENT CLOUD COVER ABOVE
       12000 FEET.
       "FAIR" INDICATES FEW OR NO CLOUDS BELOW 12,000 FEET WITH NO
       SIGNIFICANT WEATHER AND/OR OBSTRUCTIONS TO VISIBILITY.
   
NEZ001>004-019>022-054>056-150700-
NEBRASKA PANHANDLE
  
CITY           SKY/WX    TMP DP  RH WIND       PRES   REMARKS
SCOTTSBLUFF    CLOUDY    14  10  84 CALM      30.16F                  
6HR MIN TEMP:  14; 6HR MAX TEMP:  30;                                
ALLIANCE       CLOUDY     7   5  91 CALM      30.13F                  
6HR MIN TEMP:   7; 6HR MAX TEMP:  29;                                
CHADRON        CLOUDY    14  12  92 SW9       30.14F WCI   2          
6HR MIN TEMP:  14; 6HR MAX TEMP:  32;                                
GORDON         FAIR      23  17  79 W8        30.10F WCI  14          
6HR MIN TEMP:  17; 6HR MAX TEMP:  29;                                
KIMBALL        CLOUDY    17  12  82 W10       30.16F WCI   5          
SIDNEY         CLOUDY    11   8  88 W8        30.17F WCI  -1          
6HR MIN TEMP:  11; 6HR MAX TEMP:  32;                                
$$
 
NEZ057>060-069>072-079>082-150700-
SOUTHWEST NEBRASKA
  
CITY           SKY/WX    TMP DP  RH WIND       PRES   REMARKS
NORTH PLATTE   CLEAR     22  19  89 NW3       30.19F                  
6HR MIN TEMP:  20; 6HR MAX TEMP:  35;                                
IMPERIAL       CLEAR     21  16  81 W8        30.21F WCI  11          
6HR MIN TEMP:  21; 6HR MAX TEMP:  34;                                
LEXINGTON      PTCLDY    26  21  82 NW7       30.20R WCI  18          
MCCOOK         CLEAR     23  19  85 W9        30.22S WCI  13          
6HR MIN TEMP:  23; 6HR MAX TEMP:  37;                                
OGALLALA       CLEAR     17  14  90 W5        30.19F WCI   9          
$$
 
NEZ005>010-023>029-035>040-094-150700-
NORTH CENTRAL NEBRASKA
  
CITY           SKY/WX    TMP DP  RH WIND       PRES   REMARKS
VALENTINE      CLEAR     25  21  85 SW9       30.12F WCI  15          
6HR MIN TEMP:  25; 6HR MAX TEMP:  33; 6HR PCP: TRACE;                
AINSWORTH      CLOUDY    29  27  91 W8        30.12F WCI  22          
BROKEN BOW     CLOUDY    31  26  82 W8        30.16F WCI  23          
6HR MIN TEMP:  29; 6HR MAX TEMP:  34; 6HR PCP:  0.01;                
O'NEILL        CLOUDY    30  27  88 W5        30.13F WCI  25          
ORD            CLOUDY    29  22  75 W8        30.15F WCI  21          
6HR MIN TEMP:  27; 6HR MAX TEMP:  34; 6HR PCP: TRACE;                
THEDFORD       CLEAR     26  24  93 SW9       30.15F WCI  16          
$$
 
NEZ041-046>049-061>064-073>077-083>087-150700-
SOUTH CENTRAL NEBRASKA
  
CITY           SKY/WX    TMP DP  RH WIND       PRES   REMARKS
GRAND ISLAND   MOCLDY    30  26  85 NW8       30.18S WCI  22          
6HR MIN TEMP:  30; 6HR MAX TEMP:  35; 6HR PCP: TRACE;                
AURORA         CLOUDY    32  28  86 NW15      30.17S WCI  22          
HASTINGS       CLEAR     29  23  78 NW12      30.18F WCI  19          
6HR MIN TEMP:  29; 6HR MAX TEMP:  35;                                
HEBRON         CLEAR     33  31  92 NW6       30.18S WCI  27          
HOLDREGE       MOCLDY    32  29  90 NW5       30.19F WCI  27          
KEARNEY        MOCLDY    27  24  89 NW7       30.19S WCI  19          
YORK           MOCLDY    32  32 100 NW9       30.16F WCI  24          
$$
 
NEZ011>018-030>034-042>045-150700-
NORTHEAST NEBRASKA
  
CITY           SKY/WX    TMP DP  RH WIND       PRES   REMARKS
NORFOLK        CLOUDY    31  26  82 W9        30.12F WCI  23          
6HR MIN TEMP:  31; 6HR MAX TEMP:  36; 6HR PCP:  0.01;                
ALBION         CLOUDY    32  28  84 NW5       30.15S WCI  27          
BLAIR          MOCLDY    34  28  76 NW15      30.12S WCI  25          
COLUMBUS       PTCLDY    29  25  85 NW8       30.16S WCI  21          
FREMONT        MOCLDY    33  27  79 NW13      30.15S WCI  24          
TEKAMAH        MOCLDY    32  23  69 NW13      30.14S WCI  22          
6HR MIN TEMP:  31; 6HR MAX TEMP:  38; 6HR PCP: TRACE;                
WAYNE          CLOUDY    32  31  96 W8        30.12F WCI  24          
$$
NEZ050>053-065>068-078-088>093-150700-
SOUTHEAST NEBRASKA
  
CITY           SKY/WX    TMP DP  RH WIND       PRES   REMARKS
LINCOLN        CLOUDY    36  28  73 NW12      30.16S WCI  28          
6HR MIN TEMP:  35; 6HR MAX TEMP:  38;                                
OMAHA EPPLEY   CLOUDY    36  26  67 NW15      30.13R WCI  27          
6HR MIN TEMP:  35; 6HR MAX TEMP:  38;                                
BEATRICE       CLOUDY    35  32  90 NW10      30.16R WCI  27          
FALLS CITY     CLOUDY    37  30  75 NW9       30.13S WCI  30          
6HR MIN TEMP:  34; 6HR MAX TEMP:  40;                                
NEBRASKA CITY  CLOUDY    36  32  85 NW6       30.13S WCI  32          
PLATTSMOUTH    CLOUDY    36  28  73 NW13      30.13S WCI  27          
$$
NEZ044-045-051>053-067-150700-
OMAHA AREA
  
CITY           SKY/WX    TMP DP  RH WIND       PRES   REMARKS
OMAHA EPPLEY   CLOUDY    36  26  67 NW15      30.13R WCI  27          
6HR MIN TEMP:  35; 6HR MAX TEMP:  38;                                
BLAIR          MOCLDY    34  28  76 NW15      30.12S WCI  25          
FREMONT        MOCLDY    33  27  79 NW13      30.15S WCI  24          
MILLARD        CLOUDY    37  28  70 NW13      30.14S WCI  29          
OFFUTT AFB     CLOUDY    36  26  67 NW14      30.12S WCI  27          
PLATTSMOUTH    CLOUDY    36  28  73 NW13      30.13S WCI  27          
WAHOO          CLOUDY    35  27  73 NW9       30.14F WCI  28          
$$